Flag Weather past 2 weeks in Ostermundigen, Bern, Switzerland

Now
57 °F

Sunny.


Feels Like: 56 °F
Forecast: 38 / 56 °F
Wind: 6 mph from Northwest

Location: Bern / Belp

Current Time: Nov 24, 2014 at 4:11:55 PM

Latest Report: Nov 24, 2014 at 3:50 PM


Visibility: 10 mi

Pressure: 30.18 "Hg

Humidity: 77%

Dew point: 50 °F

Location of OstermundigenLocation

Historic Weather in Ostermundigen — Graph

°F

Ostermundigen temperature yesterday

Maximum temperature yesterday: 50 °F (at 1:50 PM)
Minimum temperature yesterday: 36 °F (at 4:50 AM)
Average temperature yesterday: 42 °F

Past Weeks' High & Low Weather Summary

 TemperatureHumidityPressure
High63 °F (Nov 24, 2:20 PM)100% (Nov 9, 7:50 PM)30.24 "Hg (Nov 9, 7:50 PM)
Low30 °F (Nov 20, 12:20 AM)58% (Nov 19, 2:20 PM)29.56 "Hg (Nov 15, 4:50 PM)
Average43 °F94%29.90 "Hg
* Reported Nov 9 2:20 PM — Nov 24 2:50 PM, Ostermundigen, Weather by CustomWeather, © 2014

Note: Actual official high and low records may vary slightly from our data, if they occured in-between our weather recording intervals... More about our weather records

Advertising

Ostermundigen weather history for previous 24 hours

 ConditionsComfort  
Time TempWeatherWind HumidityBarometerVisibility
2:50 PM
Nov 24
63 °FPassing clouds.2 mph64%30.15 "HgN/A
2:20 PM63 °FSunny.2 mph64%30.15 "Hg10 mi
1:50 PM61 °FSunny.2 mph68%30.18 "Hg10 mi
1:20 PM59 °FSunny.No wind72%30.18 "Hg10 mi
12:50 PM59 °FSunny.2 mph68%30.18 "Hg10 mi
12:20 PM55 °FScattered clouds.5 mph77%30.18 "HgN/A
11:50 AM57 °FSunny.6 mph72%30.18 "Hg10 mi
11:20 AM55 °FScattered clouds.1 mph77%30.21 "HgN/A
10:50 AM52 °FPassing clouds.1 mph82%30.18 "HgN/A
10:20 AM50 °FPassing clouds.1 mph88%30.21 "HgN/A
9:50 AM48 °FPartly sunny.2 mph87%30.18 "HgN/A
9:20 AM45 °FPartly sunny.2 mph100%30.18 "HgN/A
8:50 AM43 °FScattered clouds.2 mph93%30.18 "HgN/A
8:20 AM45 °FPassing clouds.3 mph93%30.18 "HgN/A
7:50 AM43 °FPassing clouds.3 mph93%30.18 "HgN/A
7:20 AM45 °FPassing clouds.9 mph100%30.18 "HgN/A
6:50 AM45 °FPassing clouds.2 mph93%30.18 "HgN/A
6:20 AM45 °FPartly cloudy.7 mph100%30.18 "HgN/A
5:50 AM45 °FPassing clouds.1 mph93%30.15 "HgN/A
5:20 AM45 °FPassing clouds.6 mph93%30.15 "HgN/A
4:50 AM45 °FPassing clouds.6 mph93%30.15 "HgN/A
4:20 AM43 °FPassing clouds.2 mph100%30.18 "Hg5 mi
3:50 AM43 °FPartly cloudy.2 mph100%30.18 "Hg5 mi
3:20 AM43 °FPartly cloudy.5 mph100%30.18 "Hg6 mi
2:50 AM43 °FOvercast.3 mph100%30.18 "Hg4 mi
2:20 AM43 °FPartly cloudy.2 mph93%30.18 "Hg6 mi
1:50 AM43 °FPassing clouds.3 mph100%30.18 "HgN/A
1:20 AM43 °FPassing clouds.6 mph100%30.18 "HgN/A
12:50 AM43 °FPassing clouds.2 mph93%30.18 "HgN/A
12:20 AM43 °FOvercast.1 mph100%30.18 "HgN/A
11:50 PM
Nov 23
43 °FPassing clouds.1 mph100%30.18 "HgN/A
11:20 PM43 °FPassing clouds.1 mph93%30.18 "HgN/A
10:50 PM43 °FPassing clouds.1 mph100%30.18 "HgN/A
10:20 PM43 °FPartly cloudy.3 mph100%30.18 "HgN/A
9:20 PM43 °FPartly cloudy.3 mph100%30.15 "HgN/A
8:50 PM45 °FClear.1 mph93%30.15 "Hg6 mi
8:20 PM45 °FPassing clouds.1 mph93%30.15 "HgN/A
7:50 PM45 °FPassing clouds.3 mph93%30.15 "Hg6 mi
7:20 PM45 °FPartly cloudy.2 mph93%30.15 "HgN/A
6:50 PM45 °FPassing clouds.5 mph93%30.15 "HgN/A
6:20 PM45 °FClear.6 mph93%30.15 "Hg10 mi
5:50 PM46 °FPassing clouds.2 mph93%30.15 "HgN/A
5:20 PM48 °FPassing clouds.1 mph87%30.15 "HgN/A
4:50 PM48 °FPartly cloudy.1 mph87%30.15 "HgN/A
4:20 PM48 °FPartly sunny.1 mph94%30.15 "HgN/A
Weather by CustomWeather, © 2014

See weather overviewHow to use our weather pages